Weather reports worldwide

Advertisment
Gioia Del Colle, Italy (16312): temperature & dewpoint: 14.06.2019 06:00:00 - 20.06.2019 06:00:00 (CEST)Gioia Del Colle, Italy (16312): wind speed: 14.06.2019 06:00:00 - 20.06.2019 06:00:00 (CEST)Gioia Del Colle, Italy (16312): wind direction: 14.06.2019 06:00:00 - 20.06.2019 06:00:00 (CEST)Gioia Del Colle, Italy (16312): reduced air pressure: 14.06.2019 06:00:00 - 20.06.2019 06:00:00 (CEST)Gioia Del Colle, Italy (16312): visibility: 14.06.2019 06:00:00 - 20.06.2019 06:00:00 (CEST)
Date & Time tt [°C] td [°C] ff [km/h] ff [kn] dd ppp [hPa] vv [km]
20.06.2019 06:00:00 - - - - - - -
20.06.2019 05:00:00 16,8 16,8 4 2 N 1012,6 10
20.06.2019 04:00:00 17,0 17,0 2 1 - - 10
20.06.2019 03:00:00 18,0 18,0 2 1 NNW - 10
20.06.2019 02:00:00 18,8 18,0 2 1 WSW 1013,1 10
20.06.2019 01:00:00 20,0 18,0 4 2 WSW - 10
20.06.2019 00:00:00 20,0 18,0 4 2 W - 10
19.06.2019 23:00:00 20,8 17,6 5 3 SW 1013,6 10
19.06.2019 22:00:00 22,0 18,0 4 2 S - 10
19.06.2019 21:00:00 23,0 17,0 8 4 SW - 10
19.06.2019 20:00:00 23,0 16,1 9 5 S 1012,1 10
19.06.2019 19:00:00 25,0 17,0 13 7 S - 10
19.06.2019 18:00:00 27,0 16,0 18 10 S - 10
19.06.2019 17:00:00 25,0 13,9 15 8 SSE 1010,9 10
19.06.2019 16:00:00 25,0 19,0 28 15 ESE - 10
19.06.2019 15:00:00 27,0 14,0 8 4 N - 10
19.06.2019 14:00:00 29,0 14,8 5 3 N 1012,5 10
19.06.2019 13:00:00 29,0 13,0 5 3 - - 10
19.06.2019 12:00:00 28,0 14,0 5 3 E - 10
19.06.2019 11:00:00 27,0 11,5 5 3 SW 1013,0 10
19.06.2019 10:00:00 26,0 16,0 9 5 NNE - 10
19.06.2019 09:00:00 25,0 15,0 9 5 NNE - 10
19.06.2019 08:00:00 22,0 15,6 9 5 NNE 1012,9 10
19.06.2019 07:00:00 19,0 17,0 4 2 N - 10
19.06.2019 06:00:00 17,0 16,0 2 1 - - 10
19.06.2019 05:00:00 17,0 15,5 4 2 WNW 1014,0 10
19.06.2019 04:00:00 17,0 15,0 4 2 NW - 10
19.06.2019 03:00:00 18,0 16,0 5 3 NE - 10
19.06.2019 02:00:00 18,0 16,2 4 2 NE 1014,1 10
19.06.2019 01:00:00 18,0 16,0 5 3 WNW - 10
19.06.2019 00:00:00 19,0 17,0 4 2 WNW - 10
18.06.2019 23:00:00 20,0 17,2 4 2 N 1013,8 10
18.06.2019 22:00:00 21,0 17,0 9 5 NNE - 10
18.06.2019 21:00:00 22,0 17,0 8 4 NNE - 10
18.06.2019 20:00:00 24,2 16,7 4 2 SSE 1012,8 10
18.06.2019 19:00:00 25,0 17,0 8 4 SSW - 10
18.06.2019 18:00:00 27,0 16,0 15 8 S - 10
18.06.2019 17:00:00 26,0 17,1 8 4 E 1012,4 10
18.06.2019 16:00:00 24,0 16,0 13 7 NNE - 10
18.06.2019 15:00:00 25,0 15,0 15 8 NNE - 10
18.06.2019 14:00:00 26,0 14,2 16 9 NNE 1012,8 10
18.06.2019 13:00:00 28,0 14,0 15 8 NNE - 10
18.06.2019 12:00:00 27,0 14,0 11 6 NNE - 10
18.06.2019 11:00:00 26,4 14,5 13 7 N 1013,1 10
18.06.2019 10:00:00 26,0 15,0 11 6 NNE - 10
18.06.2019 09:00:00 25,0 14,0 11 6 N - 10
18.06.2019 08:00:00 22,2 14,3 9 5 NNW 1013,0 10
18.06.2019 07:00:00 19,0 16,0 4 2 NW - 10
18.06.2019 06:00:00 17,0 16,0 5 3 NNW - 10
18.06.2019 05:00:00 16,8 16,0 4 2 NNE 1013,2 10
18.06.2019 04:00:00 17,0 16,0 2 1 - - 10
18.06.2019 03:00:00 17,0 16,0 5 3 WNW - 10
18.06.2019 02:00:00 18,2 17,4 4 2 NNW 1013,1 10
18.06.2019 01:00:00 19,0 18,0 4 2 SW - 10
18.06.2019 00:00:00 20,0 18,0 4 2 NNE - 10
17.06.2019 23:00:00 20,6 17,8 4 2 NNW 1012,3 10
17.06.2019 22:00:00 22,0 18,0 5 3 NNE - 10
17.06.2019 21:00:00 23,0 19,0 9 5 NNE - 10
17.06.2019 20:00:00 25,0 11,9 13 7 NNE 1010,9 10
17.06.2019 19:00:00 28,0 9,0 15 8 N - 10
17.06.2019 18:00:00 29,0 10,0 11 6 NNE - 10
17.06.2019 17:00:00 29,0 10,7 16 9 NNE 1009,9 10
17.06.2019 16:00:00 30,0 12,0 16 9 N - 10
17.06.2019 15:00:00 30,0 12,0 15 8 N - 10
17.06.2019 14:00:00 29,6 11,6 15 8 N 1010,7 10
17.06.2019 13:00:00 29,0 12,0 21 11 N - 10
17.06.2019 12:00:00 30,0 13,0 11 6 N - 10
17.06.2019 11:00:00 28,4 14,6 5 3 NE 1011,4 10
17.06.2019 10:00:00 27,0 15,0 9 5 N - 10
17.06.2019 09:00:00 22,0 15,0 13 7 NNW - 10
17.06.2019 08:00:00 22,0 15,1 15 8 NNW 1013,0 10
17.06.2019 07:00:00 20,0 16,0 5 3 N - 10
17.06.2019 06:00:00 17,0 16,0 5 3 N - 10
17.06.2019 05:00:00 17,0 15,4 4 2 N 1012,2 10
17.06.2019 04:00:00 17,0 14,0 9 5 ENE - 10
17.06.2019 03:00:00 17,0 14,0 5 3 NNE - 10
17.06.2019 02:00:00 19,0 15,5 4 2 WNW 1012,9 10
17.06.2019 01:00:00 20,0 18,0 4 2 NNW - 10
17.06.2019 00:00:00 20,0 19,0 5 3 WNW - 10
16.06.2019 23:00:00 21,0 19,3 5 3 WNW 1012,6 10
16.06.2019 22:00:00 23,0 15,0 8 4 W - 10
16.06.2019 21:00:00 23,0 19,0 5 3 NNW - 10
16.06.2019 20:00:00 25,2 14,4 15 8 NNE 1011,3 10
16.06.2019 19:00:00 27,0 14,0 21 11 N - 10
16.06.2019 18:00:00 28,0 15,0 21 11 N - 10
16.06.2019 17:00:00 29,6 15,7 21 11 N 1009,9 10
16.06.2019 16:00:00 30,0 15,0 16 9 NNE - 10
16.06.2019 15:00:00 31,0 15,0 21 11 NNE - 10
16.06.2019 14:00:00 31,4 15,4 22 12 N 1011,0 10
16.06.2019 13:00:00 30,0 16,0 18 10 NNW - 10
16.06.2019 12:00:00 29,0 16,0 22 12 NNW - 10
16.06.2019 11:00:00 28,6 14,8 21 11 N 1011,1 10
16.06.2019 10:00:00 29,0 14,0 21 11 NNW - 10
16.06.2019 09:00:00 27,0 12,0 18 10 NNW - 10
16.06.2019 08:00:00 25,8 14,9 15 8 NNW 1012,2 10
16.06.2019 07:00:00 23,0 15,0 11 6 NW - 10
16.06.2019 06:00:00 22,0 15,0 8 4 NNE - 10
16.06.2019 05:00:00 21,0 14,4 8 4 NNW 1011,6 10
16.06.2019 04:00:00 21,0 14,0 8 4 NE - 10
16.06.2019 03:00:00 22,0 14,0 8 4 NNW - 10
16.06.2019 02:00:00 22,6 13,7 9 5 NW 1011,6 10
16.06.2019 01:00:00 24,0 15,0 13 7 WNW - 10
16.06.2019 00:00:00 24,0 15,0 4 2 NNW - 10
15.06.2019 23:00:00 23,6 15,7 8 4 W 1011,0 10
15.06.2019 22:00:00 23,0 15,0 5 3 WSW - 10
15.06.2019 21:00:00 27,0 16,0 4 2 SW - 10
15.06.2019 20:00:00 30,8 9,1 2 1 W 1011,4 10
15.06.2019 19:00:00 31,0 7,0 4 2 NNE - 10
15.06.2019 18:00:00 32,0 10,0 11 6 N - 10
15.06.2019 17:00:00 32,0 8,3 16 9 N 1011,0 10
15.06.2019 16:00:00 34,0 10,0 18 10 N - 10
15.06.2019 15:00:00 33,0 11,0 21 11 N - 10
15.06.2019 14:00:00 34,0 12,9 15 8 NNW 1012,3 10
15.06.2019 13:00:00 33,0 10,0 11 6 N - 10
15.06.2019 12:00:00 33,0 7,0 13 7 NNW - 10
15.06.2019 11:00:00 32,0 6,3 8 4 NNW 1013,0 10
15.06.2019 10:00:00 30,0 12,0 8 4 NNW - 10
15.06.2019 09:00:00 29,0 12,0 8 4 NNW - 10
15.06.2019 08:00:00 24,2 14,0 5 3 WNW 1013,6 10
15.06.2019 07:00:00 21,0 15,0 4 2 - - 10
15.06.2019 06:00:00 18,0 13,0 4 2 N - 10
15.06.2019 05:00:00 17,8 12,1 8 4 NE 1014,5 10
15.06.2019 04:00:00 18,0 12,0 4 2 - - 10
15.06.2019 03:00:00 18,0 13,0 8 4 NNW - 10
15.06.2019 02:00:00 18,0 12,7 5 3 NNW 1015,5 10
15.06.2019 01:00:00 18,0 13,0 5 3 N - 10
15.06.2019 00:00:00 19,0 13,0 4 2 N - 10
14.06.2019 23:00:00 20,2 11,7 4 2 N 1017,1 10
14.06.2019 22:00:00 21,0 10,0 5 3 WNW - 10
14.06.2019 21:00:00 24,0 6,0 9 5 NNE - 10
14.06.2019 20:00:00 28,2 3,1 11 6 N 1014,5 10
14.06.2019 19:00:00 30,0 3,0 15 8 NNW - 10
14.06.2019 18:00:00 30,0 2,0 15 8 NNW - 10
14.06.2019 17:00:00 31,2 3,3 18 10 N 1015,1 12
14.06.2019 16:00:00 32,0 3,0 21 11 N - 10
14.06.2019 15:00:00 31,0 3,0 21 11 N - 10
14.06.2019 14:00:00 31,0 5,4 22 12 N 1015,8 12
14.06.2019 13:00:00 31,0 8,0 21 11 N - 10
14.06.2019 12:00:00 29,0 10,0 21 11 N - 10
14.06.2019 11:00:00 28,2 11,3 21 11 N 1016,5 10
14.06.2019 10:00:00 27,0 12,0 22 12 N - 10
14.06.2019 09:00:00 25,0 12,0 21 11 N - 10
14.06.2019 08:00:00 23,0 14,8 15 8 NNW 1016,6 10
14.06.2019 07:00:00 18,0 18,0 11 6 N - 4,0
14.06.2019 06:00:00 18,0 18,0 11 6 N - -

tt = temperature
td = dewpoint
ff = wind speed
dd = wind direction
ppp = reduced air pressure
vv = visibility

Next stations